GW3496 Weather Reports


time (UTC)temp
C
wind
direction
speed
KPH
gust
KPH
rain 1hr
cm
rain 24hr
cm
rain mn
cm
humidity
%
barometer
mb
20260905043529 23 239 6.4 12.9 0.00 1.19 0.00 89 1010.7
20260905041537 23 299 3.2 16.1 0.00 1.19 0.00 88 1010.9
20260905040036 23 271 1.6 6.4 0.00 1.19 0.00 87 1011.1
20260905034547 23 211 0.0 6.4 0.00 1.19 1.19 87 1011.1
20260905033037 23 304 0.0 0.0 0.00 1.19 1.19 86 1011.0
20260905031538 23 231 1.6 9.7 0.00 1.19 1.19 86 1010.9
20260905030039 24 254 3.2 11.3 0.00 1.19 1.19 85 1011.0
20260905024538 24 252 0.0 6.4 0.00 1.19 1.19 85 1011.1
20260905023037 24 259 3.2 6.4 0.00 1.19 1.19 84 1011.3
20260905021534 25 164 0.0 0.0 0.00 1.19 1.19 84 1011.1
20260905020040 24 244 0.0 4.8 0.00 1.19 1.19 84 1011.2
20260905014538 24 211 0.0 6.4 0.00 1.19 1.19 84 1010.7
20260905013039 24 257 3.2 6.4 0.00 1.19 1.19 84 1010.6
20260905011542 24 196 0.0 3.2 0.00 1.19 1.19 84 1010.5
20260905010036 25 263 0.0 0.0 0.00 1.19 1.19 84 1010.2
20260905004547 25 250 0.0 6.4 0.00 1.19 1.19 83 1010.0
20260905003034 25 184 1.6 11.3 0.00 1.19 1.19 83 1009.9
20260905001548 25 193 4.8 11.3 0.00 1.19 1.19 84 1009.7
20260905000040 25 319 3.2 12.9 0.00 1.19 1.19 83 1010.3
20260904234541 25 269 8.0 17.7 0.00 1.19 1.19 82 1010.6
20260904233044 26 229 8.0 19.3 0.00 1.19 1.19 80 1010.5
20260904231545 26 286 1.6 11.3 0.00 1.19 1.19 79 1010.4
20260904230037 26 294 0.0 0.0 0.00 1.19 1.19 79 1010.0
20260904224547 26 182 0.0 9.7 0.00 1.19 1.19 79 1010.1
20260904223055 27 180 6.4 14.5 0.00 1.19 1.19 80 1010.4
20260904221537 27 180 3.2 11.3 0.00 1.19 1.19 80 1010.3
20260904220037 28 244 12.9 22.5 0.00 1.19 1.19 77 1010.8
20260904214541 28 310 6.4 16.1 0.00 1.19 1.19 73 1011.9
20260904213044 29 5 4.8 12.9 0.00 1.19 1.19 69 1011.4
20260904211542 29 56 4.8 19.3 0.00 1.19 1.19 70 1010.8
20260904210056 31 345 3.2 8.0 0.00 1.19 1.19 67 1010.6
20260904204540 31 355 3.2 8.0 0.00 1.19 1.19 66 1010.5
20260904203041 31 334 0.0 9.7 0.00 1.19 1.19 66 1010.8
20260904201543 32 344 3.2 8.0 0.00 1.19 1.19 65 1010.7
20260904200041 32 25 0.0 4.8 0.00 1.19 1.19 61 1009.9
20260904194546 32 11 1.6 12.9 0.00 1.19 1.19 61 1010.8
20260904193052 33 18 4.8 12.9 0.00 1.19 1.19 60 1011.1
20260904191550 33 279 9.7 17.7 0.00 1.19 1.19 59 1011.1
20260904190043 33 312 6.4 12.9 0.00 1.19 1.19 59 1011.1
20260904184540 33 279 4.8 17.7 0.00 1.19 1.19 59 1011.5
20260904183039 33 355 8.0 16.1 0.00 1.19 1.19 59 1011.7
20260904181542 32 279 4.8 14.5 0.00 1.19 1.19 60 1012.0
20260904180042 32 245 8.0 16.1 0.00 1.19 1.19 61 1012.0
20260904174548 32 333 3.2 12.9 0.00 1.19 1.19 60 1012.5
20260904173052 32 40 0.0 8.0 0.00 1.19 1.19 60 1012.8
20260904171541 32 5 3.2 12.9 0.00 1.19 1.19 61 1012.7
20260904170050 31 41 9.7 16.1 0.00 1.19 1.19 61 1012.6
20260904164549 31 22 12.9 20.9 0.00 1.19 1.19 61 1012.9
20260904163050 31 355 8.0 19.3 0.00 1.19 1.19 63 1013.0
20260904161540 31 19 8.0 16.1 0.00 1.19 1.19 63 1013.2
20260904160052 31 360 6.4 14.5 0.00 1.19 1.19 64 1013.2
20260904154539 30 26 9.7 19.3 0.00 1.19 1.19 65 1013.1
20260904153047 30 10 9.7 16.1 0.00 1.19 1.19 66 1013.2
20260904151549 30 298 0.0 9.7 0.00 1.19 1.19 71 1013.2
20260904150053 28 341 0.0 8.0 0.00 1.19 1.19 74 1013.4
20260904144604 28 19 1.6 6.4 0.00 1.19 1.19 76 1013.3
20260904143056 27 40 1.6 8.0 0.00 1.19 1.19 79 1013.4
20260904141545 27 333 3.2 9.7 0.00 1.19 1.19 81 1013.2
20260904140042 26 352 1.6 8.0 0.00 1.19 1.19 83 1013.1
20260904134551 26 14 0.0 8.0 0.00 1.19 1.19 85 1013.2
20260904133040 25 40 6.4 12.9 0.00 1.19 1.19 87 1013.1
20260904131538 25 26 4.8 14.5 0.00 1.19 1.19 90 1013.0
20260904130049 24 27 9.7 17.7 0.00 1.19 1.19 92 1012.8
20260904124543 24 51 4.8 16.1 0.00 1.19 1.19 93 1012.7
20260904123041 23 23 6.4 11.3 0.00 1.19 1.19 94 1012.5
20260904121540 23 282 0.0 4.8 0.00 1.19 1.19 94 1012.5
20260904120051 23 323 0.0 0.0 0.00 1.19 1.19 94 1012.4
20260904114543 22 239 0.0 0.0 0.00 1.19 1.19 95 1012.2
20260904113043 22 234 0.0 0.0 0.00 1.19 1.19 95 1012.0
20260904111542 22 222 0.0 0.0 0.00 1.19 1.19 94 1011.8
20260904110050 22 350 0.0 0.0 0.00 1.19 1.19 94 1011.8
20260904104544 22 350 0.0 0.0 0.00 1.19 1.19 94 1011.7
20260904103052 22 190 0.0 0.0 0.00 1.19 1.19 94 1011.5
20260904101542 22 190 0.0 0.0 0.00 1.19 1.19 94 1011.5
20260904100051 22 206 0.0 0.0 0.00 1.19 1.19 94 1011.4
20260904094553 22 188 0.0 0.0 0.00 1.19 1.19 94 1011.3
20260904093054 22 222 0.0 6.4 0.00 1.19 1.19 94 1011.3
20260904091553 22 177 0.0 4.8 0.00 1.19 1.19 94 1011.4
20260904090053 22 154 3.2 8.0 0.00 1.19 1.19 94 1011.4
20260904084552 22 148 1.6 9.7 0.03 1.19 1.19 94 1011.5
20260904083044 22 146 1.6 4.8 0.03 1.19 1.19 94 1011.5
20260904081555 22 131 0.0 0.0 0.03 1.19 1.19 94 1011.5
20260904080052 22 355 0.0 0.0 0.05 1.19 1.19 94 1011.6
20260904074601 22 355 0.0 4.8 0.08 1.14 1.14 94 1011.3
20260904073045 22 15 0.0 6.4 0.10 1.14 1.14 93 1011.1
20260904071611 22 346 0.0 0.0 0.20 1.14 1.14 93 1011.2
20260904070106 22 260 3.2 6.4 0.23 1.14 1.14 92 1010.9
20260904064605 22 200 6.4 11.3 0.33 1.07 1.07 92 1011.0
20260904063054 22 281 0.0 0.0 0.43 1.04 1.04 92 1011.2
20260904061553 22 164 1.6 6.4 0.56 0.97 0.97 92 1011.2
20260904060054 22 139 1.6 11.3 0.89 0.89 0.89 92 1011.3
20260904054551 23 226 8.0 16.1 0.74 0.74 0.74 91 1011.9
20260904053100 23 232 3.2 6.4 0.56 0.56 0.56 90 1012.4
20260904051553 23 282 3.2 17.7 0.36 0.36 0.36 88 1013.3
20260904050107 25 298 16.1 43.5 0.00 0.00 0.00 82 1013.8
20260904044617 26 17 22.5 38.6 0.00 0.00 0.00 81 1014.1